Cosmos 1975 Rocket - Orbit

View from above orbital plane
View from above orbital plane
View from above satellite
View from above satellite

Ground track
Ground track

The orbit data is extracted from the following two-line orbital elements,

1 19574U 88093B   13144.82926354  .00000507  00000-0  60330-4 0   265
2 19574 082.5332 092.1009 0020935 331.0700 087.6007 14.82316714329475
Epoch (UTC): 24 May 2013 19:54:08
Eccentricity: 0.0020935
inclination: 82.5332°
perigee height: 607 km
apogee height: 636 km
right ascension of ascending node: 92.1009°
argument of perigee: 331.0700°
revolutions per day: 14.82316714
mean anomaly at epoch: 87.6007°
orbit number at epoch: 32947

The dashed part of the orbit path shows where the satellite is in the earth's shadow,  

Developed and maintained by Chris Peat, Heavens-Above GmbH. Please read the updated FAQ before sending e-mail. Imprint. DLR